• In Netherlands
  • List of Countries
  • For 7 days
  • Water Temperature
  • Satellite Maps
  • Weather Map
  • Weather Widgets
  • user-avatar
    Login

    Hourly Weather Yeghegnadzor

    Today, 27 July, Thursday

    Time Temperature Precipitation Wind Pressure Humidity
    00:00 +21°C° 0 mm 2 mps 652 mmHg 63%
    01:00 +21°C° 0 mm 2 mps 652 mmHg 63%
    02:00 +21°C° 0 mm 2 mps 652 mmHg 63%
    03:00 +20°C° 0 mm 2 mps 652 mmHg 63%
    04:00 +21°C° 0 mm 2 mps 652 mmHg 61%
    05:00 +21°C° 0 mm 2 mps 653 mmHg 59%
    06:00 +23°C° 0 mm 1 mps 653 mmHg 57%
    07:00 +25°C° 0 mm 1 mps 653 mmHg 50%
    08:00 +27°C° 0 mm 2 mps 654 mmHg 43%
    09:00 +29°C° 0 mm 2 mps 654 mmHg 37%
    10:00 +30°C° 0 mm 2 mps 654 mmHg 34%
    11:00 +31°C° 0 mm 2 mps 654 mmHg 31%
    12:00 +34°C° 0 mm 2 mps 654 mmHg 28%
    13:00 +34°C° 0 mm 2 mps 654 mmHg 27%
    14:00 +34°C° 0 mm 2 mps 654 mmHg 26%
    15:00 +35°C° 0 mm 2 mps 654 mmHg 25%
    16:00 +34°C° 0 mm 2 mps 653 mmHg 27%
    17:00 +32°C° 0 mm 2 mps 653 mmHg 30%
    18:00 +32°C° 0 mm 2 mps 653 mmHg 33%
    19:00 +29°C° 0 mm 2 mps 653 mmHg 40%
    20:00 +27°C° 0 mm 2 mps 653 mmHg 47%
    21:00 +25°C° 0 mm 2 mps 653 mmHg 54%
    22:00 +24°C° 0 mm 2 mps 653 mmHg 55%
    23:00 +24°C° 0 mm 2 mps 653 mmHg 55%

    Tomorrow, 28 July, Friday

    Time Temperature Precipitation Wind Pressure Humidity
    00:00 +24°C° 0 mm 3 mps 653 mmHg 56%
    01:00 +23°C° 0 mm 2 mps 653 mmHg 54%
    02:00 +23°C° 0 mm 2 mps 653 mmHg 51%
    03:00 +23°C° 0 mm 2 mps 653 mmHg 49%
    04:00 +23°C° 0 mm 2 mps 653 mmHg 47%
    05:00 +24°C° 0 mm 2 mps 654 mmHg 45%
    06:00 +24°C° 0 mm 2 mps 654 mmHg 43%
    07:00 +27°C° 0 mm 2 mps 654 mmHg 38%
    08:00 +29°C° 0 mm 2 mps 655 mmHg 33%
    09:00 +31°C° 0 mm 2 mps 655 mmHg 28%
    10:00 +34°C° 0 mm 2 mps 655 mmHg 26%
    11:00 +35°C° 0 mm 3 mps 655 mmHg 24%
    12:00 +36°C° 0 mm 3 mps 655 mmHg 21%
    13:00 +37°C° 0 mm 3 mps 655 mmHg 20%
    14:00 +37°C° 0 mm 3 mps 654 mmHg 19%
    15:00 +38°C° 0 mm 3 mps 654 mmHg 18%
    16:00 +37°C° 0 mm 3 mps 654 mmHg 21%
    17:00 +36°C° 0 mm 2 mps 653 mmHg 23%
    18:00 +35°C° 0 mm 1 mps 653 mmHg 26%
    19:00 +32°C° 0 mm 2 mps 653 mmHg 30%
    20:00 +30°C° 0 mm 2 mps 653 mmHg 35%
    21:00 +28°C° 0 mm 3 mps 653 mmHg 39%
    22:00 +27°C° 0 mm 2 mps 653 mmHg 38%
    23:00 +27°C° 0 mm 2 mps 653 mmHg 38%

    Day after tomorrow, 29 July, Saturday

    Time Temperature Precipitation Wind Pressure Humidity
    00:00 +26°C° 0 mm 2 mps 653 mmHg 37%
    01:00 +26°C° 0 mm 2 mps 653 mmHg 37%
    02:00 +25°C° 0 mm 2 mps 653 mmHg 36%
    03:00 +25°C° 0 mm 2 mps 653 mmHg 36%
    04:00 +25°C° 0 mm 2 mps 653 mmHg 36%
    05:00 +25°C° 0 mm 2 mps 653 mmHg 36%
    06:00 +25°C° 0 mm 2 mps 653 mmHg 37%
    07:00 +28°C° 0 mm 2 mps 654 mmHg 31%
    08:00 +30°C° 0 mm 2 mps 655 mmHg 26%
    09:00 +32°C° 0 mm 2 mps 655 mmHg 21%
    10:00 +34°C° 0 mm 2 mps 655 mmHg 19%
    11:00 +36°C° 0 mm 2 mps 655 mmHg 17%
    12:00 +37°C° 0 mm 3 mps 655 mmHg 14%
    13:00 +37°C° 0 mm 3 mps 654 mmHg 14%
    14:00 +37°C° 0 mm 3 mps 654 mmHg 14%
    15:00 +38°C° 0 mm 3 mps 654 mmHg 13%
    16:00 +37°C° 0 mm 2 mps 654 mmHg 17%
    17:00 +36°C° 0 mm 2 mps 653 mmHg 20%
    18:00 +35°C° 0 mm 2 mps 653 mmHg 23%
    19:00 +32°C° 0 mm 2 mps 653 mmHg 30%
    20:00 +29°C° 0 mm 3 mps 653 mmHg 38%
    21:00 +27°C° 0 mm 3 mps 653 mmHg 45%
    22:00 +26°C° 0 mm 3 mps 653 mmHg 49%
    23:00 +26°C° 0 mm 3 mps 654 mmHg 53%

    30 July, Sunday

    Time Temperature Precipitation Wind Pressure Humidity
    00:00 +25°C° 0 mm 3 mps 654 mmHg 57%
    01:00 +24°C° 0 mm 3 mps 654 mmHg 59%
    02:00 +24°C° 0 mm 3 mps 654 mmHg 61%
    03:00 +22°C° 0 mm 3 mps 654 mmHg 62%
    04:00 +22°C° 0 mm 3 mps 654 mmHg 61%
    05:00 +23°C° 0 mm 2 mps 654 mmHg 60%
    06:00 +24°C° 0 mm 2 mps 655 mmHg 59%
    07:00 +26°C° 0 mm 2 mps 655 mmHg 52%
    08:00 +28°C° 0 mm 2 mps 656 mmHg 46%
    09:00 +30°C° 0 mm 2 mps 656 mmHg 39%
    10:00 +31°C° 0 mm 2 mps 656 mmHg 36%
    11:00 +32°C° 0 mm 2 mps 656 mmHg 32%
    12:00 +35°C° 0 mm 2 mps 656 mmHg 29%
    13:00 +35°C° 0 mm 3 mps 656 mmHg 29%
    14:00 +35°C° 0 mm 3 mps 655 mmHg 29%
    15:00 +35°C° 0 mm 3 mps 655 mmHg 29%
    16:00 +35°C° 0 mm 3 mps 655 mmHg 32%
    17:00 +34°C° 0 mm 3 mps 655 mmHg 36%
    18:00 +33°C° 0 mm 3 mps 654 mmHg 40%
    19:00 +30°C° 0 mm 3 mps 655 mmHg 48%
    20:00 +28°C° 0 mm 3 mps 655 mmHg 56%
    21:00 +26°C° 0 mm 3 mps 655 mmHg 65%
    22:00 +25°C° 0 mm 3 mps 655 mmHg 67%
    23:00 +25°C° 0 mm 3 mps 655 mmHg 69%

    31 July, Monday

    Time Temperature Precipitation Wind Pressure Humidity
    00:00 +24°C° 0 mm 3 mps 655 mmHg 71%
    01:00 +24°C° 0 mm 3 mps 655 mmHg 71%
    02:00 +22°C° 0 mm 3 mps 655 mmHg 71%
    03:00 +22°C° 0 mm 3 mps 655 mmHg 71%
    04:00 +22°C° 0 mm 3 mps 656 mmHg 69%
    05:00 +22°C° 0 mm 3 mps 656 mmHg 68%
    06:00 +22°C° 0 mm 3 mps 656 mmHg 66%
    07:00 +25°C° 0 mm 2 mps 657 mmHg 58%
    08:00 +28°C° 0 mm 2 mps 657 mmHg 50%
    09:00 +30°C° 0 mm 2 mps 658 mmHg 42%
    10:00 +31°C° 0 mm 2 mps 658 mmHg 39%
    11:00 +32°C° 0 mm 2 mps 657 mmHg 36%
    12:00 +35°C° 0 mm 3 mps 657 mmHg 33%
    13:00 +35°C° 0.3 mm 3 mps 657 mmHg 33%
    14:00 +35°C° 0.3 mm 3 mps 657 mmHg 33%
    15:00 +36°C° 0.3 mm 3 mps 657 mmHg 32%
    16:00 +35°C° 0.3 mm 3 mps 656 mmHg 36%
    17:00 +34°C° 0.3 mm 3 mps 656 mmHg 39%
    18:00 +33°C° 0.3 mm 3 mps 656 mmHg 42%
    19:00 +30°C° 0 mm 3 mps 656 mmHg 50%
    20:00 +28°C° 0 mm 3 mps 656 mmHg 58%
    21:00 +26°C° 0 mm 3 mps 656 mmHg 66%
    22:00 +25°C° 0 mm 3 mps 656 mmHg 66%
    23:00 +24°C° 0 mm 3 mps 656 mmHg 67%

    1 August, Tuesday

    Time Temperature Precipitation Wind Pressure Humidity
    00:00 +24°C° 0 mm 2 mps 656 mmHg 68%
    01:00 +24°C° 0 mm 2 mps 656 mmHg 68%
    02:00 +23°C° 0 mm 2 mps 656 mmHg 67%
    03:00 +23°C° 0 mm 2 mps 656 mmHg 67%
    04:00 +23°C° 0 mm 2 mps 657 mmHg 66%
    05:00 +23°C° 0 mm 2 mps 657 mmHg 64%
    06:00 +24°C° 0 mm 2 mps 657 mmHg 63%
    07:00 +26°C° 0 mm 2 mps 658 mmHg 56%
    08:00 +28°C° 0 mm 2 mps 658 mmHg 49%
    09:00 +30°C° 0 mm 2 mps 658 mmHg 42%
    10:00 +31°C° 0 mm 2 mps 658 mmHg 39%
    11:00 +32°C° 0 mm 2 mps 658 mmHg 37%
    12:00 +34°C° 0 mm 2 mps 658 mmHg 34%
    13:00 +35°C° 0.1 mm 3 mps 658 mmHg 33%
    14:00 +35°C° 0.1 mm 3 mps 658 mmHg 33%
    15:00 +36°C° 0.1 mm 3 mps 657 mmHg 32%
    16:00 +35°C° 0.1 mm 3 mps 657 mmHg 35%
    17:00 +34°C° 0.1 mm 3 mps 657 mmHg 38%
    18:00 +33°C° 0.1 mm 3 mps 657 mmHg 41%
    19:00 +30°C° 0 mm 3 mps 656 mmHg 49%
    20:00 +28°C° 0 mm 3 mps 656 mmHg 56%
    21:00 +25°C° 0 mm 3 mps 656 mmHg 64%
    22:00 +25°C° 0 mm 3 mps 656 mmHg 64%
    23:00 +24°C° 0 mm 3 mps 656 mmHg 65%
    Show more